KTOB

Details ICAO KTOB
Name Dodge Center
Region United States
Timezone America/Chicago (UTC-5.0)
Plans Departing 6
Arriving 4
Stats Elevation 1,305 ft / 398 m (AMSL)
Location 44.018058° -92.832794°
Runways 2
Magnetic Variation 0.071° W
Sunrise 2018-05-25 10:37:21 UTC / 2018-05-25 05:37:21 Local
Sunset 2018-05-26 01:42:06 UTC / 2018-05-25 20:42:06 Local
Advertisement - Login to hide

Runways

ID Width Length Bearing (true) Bearing (mag) Surface Threshold Offset Overrun Length
04 200 ft / 61 m 2,281 ft / 695 m 44.68° 44.75° Grass 0 ft / 0 m 0 ft / 0 m
16 75 ft / 23 m 4,504 ft / 1,373 m 165.68° 165.75° Concrete 0 ft / 0 m 0 ft / 0 m
22 200 ft / 61 m 2,281 ft / 695 m 224.68° 224.75° Grass 0 ft / 0 m 0 ft / 0 m
34 75 ft / 23 m 4,504 ft / 1,373 m 345.68° 345.75° Concrete 0 ft / 0 m 0 ft / 0 m

Map

Weather


0- 5 10 15 20 25 30 35+ Temperature / ° C

Clouds and Precipitation
Forecast for 2018-05-25 18:00 UTC. Updated 2 hours ago

Ground ~20,000 ft ~40,000 ft Winds

METAR

KTOB 251855Z AUTO 22014G18KT 10SM SCT070 29/17 A2979 RMK AO2

TAF

Not found

Frequencies

Recorded 119.07 MHz AWOS 3
Approach 119.80 MHz ROCHESTER APP/DEP
Unicom 122.90 MHz CTAF
Warning: Do not use this data for real-world aviation or navigation. No guarantee of current accuracy is given.